When you browse on this site, cookies collect data to enhance your experience and personalize the content and advertising you see.
Visit our Privacy Policy to learn more. By continuing to use the site, you agree to this use of cookies and data.
  • In Hungary
  • List of Countries
  • For 7 days
  • Water Temperature
  • Satellite Maps
  • Weather Map
  • News
  • Weather Widgets
  • user-avatar
    Login

    Hourly Weather Tarin Kowt

    Today, 21 April, Sunday

    Time Temperature Precipitation Wind Pressure Humidity
    00:00 +19°C° 0 mm 2 mps 616 mmHg 37%
    01:00 +18°C° 0 mm 2 mps 615 mmHg 38%
    02:00 +18°C° 0 mm 2 mps 615 mmHg 38%
    03:00 +18°C° 0 mm 2 mps 615 mmHg 39%
    04:00 +17°C° 0 mm 2 mps 614 mmHg 38%
    05:00 +18°C° 0 mm 2 mps 615 mmHg 36%
    06:00 +19°C° 0 mm 2 mps 615 mmHg 34%
    07:00 +20°C° 0 mm 2 mps 616 mmHg 32%
    08:00 +21°C° 0 mm 2 mps 616 mmHg 29%
    09:00 +24°C° 0 mm 1 mps 617 mmHg 26%
    10:00 +23°C° 0 mm 0 mps 617 mmHg 22%
    11:00 +26°C° 0 mm 1 mps 617 mmHg 20%
    12:00 +27°C° 0 mm 2 mps 617 mmHg 18%
    13:00 +28°C° 0 mm 3 mps 617 mmHg 16%
    14:00 +28°C° 0 mm 4 mps 617 mmHg 16%
    15:00 +28°C° 0 mm 4 mps 617 mmHg 15%
    16:00 +28°C° 0 mm 5 mps 617 mmHg 15%
    17:00 +26°C° 0 mm 4 mps 617 mmHg 19%
    18:00 +25°C° 0 mm 3 mps 616 mmHg 23%
    19:00 +24°C° 0 mm 1 mps 616 mmHg 27%
    20:00 +23°C° 0 mm 1 mps 616 mmHg 29%
    21:00 +22°C° 0 mm 1 mps 616 mmHg 31%
    22:00 +21°C° 0 mm 1 mps 616 mmHg 32%
    23:00 +21°C° 0 mm 1 mps 616 mmHg 34%

    Tomorrow, 22 April, Monday

    Time Temperature Precipitation Wind Pressure Humidity
    00:00 +20°C° 0 mm 1 mps 615 mmHg 35%
    01:00 +19°C° 0 mm 1 mps 615 mmHg 36%
    02:00 +19°C° 0 mm 1 mps 615 mmHg 35%
    03:00 +18°C° 0 mm 1 mps 615 mmHg 34%
    04:00 +18°C° 0 mm 1 mps 615 mmHg 33%
    05:00 +18°C° 0 mm 2 mps 616 mmHg 31%
    06:00 +19°C° 0 mm 2 mps 616 mmHg 29%
    07:00 +20°C° 0 mm 2 mps 617 mmHg 27%
    08:00 +23°C° 0 mm 2 mps 618 mmHg 23%
    09:00 +24°C° 0 mm 1 mps 618 mmHg 19%
    10:00 +25°C° 0 mm 1 mps 619 mmHg 16%
    11:00 +26°C° 0 mm 2 mps 619 mmHg 15%
    12:00 +27°C° 0 mm 3 mps 619 mmHg 15%
    13:00 +28°C° 0 mm 4 mps 619 mmHg 14%
    14:00 +29°C° 0 mm 4 mps 619 mmHg 14%
    15:00 +29°C° 0 mm 5 mps 619 mmHg 13%
    16:00 +29°C° 0 mm 5 mps 619 mmHg 13%
    17:00 +27°C° 0 mm 4 mps 618 mmHg 17%
    18:00 +26°C° 0 mm 3 mps 618 mmHg 20%
    19:00 +25°C° 0 mm 2 mps 617 mmHg 24%
    20:00 +24°C° 0 mm 2 mps 617 mmHg 27%
    21:00 +23°C° 0 mm 1 mps 617 mmHg 29%
    22:00 +22°C° 0 mm 1 mps 617 mmHg 32%
    23:00 +22°C° 0 mm 1 mps 617 mmHg 32%

    Day after tomorrow, 23 April, Tuesday

    Time Temperature Precipitation Wind Pressure Humidity
    00:00 +22°C° 0 mm 1 mps 618 mmHg 32%
    01:00 +22°C° 0 mm 1 mps 618 mmHg 33%
    02:00 +21°C° 0.1 mm 1 mps 618 mmHg 37%
    03:00 +21°C° 0.1 mm 1 mps 617 mmHg 42%
    04:00 +20°C° 0.1 mm 1 mps 617 mmHg 47%
    05:00 +21°C° 0.3 mm 1 mps 618 mmHg 46%
    06:00 +21°C° 0.3 mm 1 mps 618 mmHg 45%
    07:00 +21°C° 0.3 mm 2 mps 618 mmHg 43%
    08:00 +23°C° 0 mm 2 mps 619 mmHg 39%
    09:00 +24°C° 0 mm 1 mps 619 mmHg 35%
    10:00 +25°C° 0 mm 1 mps 620 mmHg 31%
    11:00 +26°C° 0 mm 2 mps 620 mmHg 29%
    12:00 +27°C° 0 mm 4 mps 620 mmHg 26%
    13:00 +28°C° 0 mm 5 mps 620 mmHg 24%
    14:00 +28°C° 0 mm 5 mps 619 mmHg 25%
    15:00 +27°C° 0 mm 5 mps 618 mmHg 25%
    16:00 +27°C° 0 mm 5 mps 618 mmHg 26%
    17:00 +26°C° 0 mm 4 mps 617 mmHg 29%
    18:00 +25°C° 0 mm 3 mps 617 mmHg 32%
    19:00 +24°C° 0 mm 2 mps 617 mmHg 35%
    20:00 +22°C° 0.1 mm 3 mps 617 mmHg 37%
    21:00 +22°C° 0.1 mm 4 mps 617 mmHg 40%
    22:00 +21°C° 0.1 mm 6 mps 617 mmHg 42%
    23:00 +20°C° 0.1 mm 4 mps 617 mmHg 46%

    24 April, Wednesday

    Time Temperature Precipitation Wind Pressure Humidity
    00:00 +20°C° 0.1 mm 3 mps 616 mmHg 50%
    01:00 +19°C° 0.1 mm 2 mps 616 mmHg 54%
    02:00 +18°C° 0.5 mm 2 mps 616 mmHg 57%
    03:00 +18°C° 0.5 mm 2 mps 615 mmHg 60%
    04:00 +17°C° 0.5 mm 2 mps 615 mmHg 64%
    05:00 +18°C° 0.7 mm 2 mps 615 mmHg 60%
    06:00 +18°C° 0.7 mm 3 mps 615 mmHg 57%
    07:00 +19°C° 0.7 mm 4 mps 615 mmHg 53%
    08:00 +21°C° 0 mm 5 mps 616 mmHg 45%
    09:00 +22°C° 0 mm 7 mps 617 mmHg 38%
    10:00 +24°C° 0 mm 9 mps 617 mmHg 30%
    11:00 +24°C° 0 mm 10 mps 617 mmHg 31%
    12:00 +24°C° 0 mm 10 mps 617 mmHg 32%
    13:00 +24°C° 0 mm 10 mps 617 mmHg 33%
    14:00 +23°C° 0 mm 10 mps 616 mmHg 31%
    15:00 +23°C° 0 mm 10 mps 616 mmHg 30%
    16:00 +22°C° 0 mm 10 mps 616 mmHg 28%
    17:00 +21°C° 0 mm 8 mps 616 mmHg 30%
    18:00 +20°C° 0 mm 6 mps 616 mmHg 31%
    19:00 +17°C° 0 mm 5 mps 616 mmHg 33%
    20:00 +17°C° 0 mm 4 mps 616 mmHg 34%
    21:00 +17°C° 0 mm 3 mps 616 mmHg 35%
    22:00 +16°C° 0 mm 2 mps 616 mmHg 37%
    23:00 +15°C° 0 mm 2 mps 616 mmHg 38%

    25 April, Thursday

    Time Temperature Precipitation Wind Pressure Humidity
    00:00 +14°C° 0 mm 2 mps 616 mmHg 39%
    01:00 +14°C° 0 mm 2 mps 616 mmHg 40%
    02:00 +13°C° 0 mm 1 mps 616 mmHg 42%
    03:00 +13°C° 0 mm 1 mps 616 mmHg 43%
    04:00 +12°C° 0 mm 1 mps 616 mmHg 45%
    05:00 +13°C° 0 mm 1 mps 616 mmHg 40%
    06:00 +14°C° 0 mm 1 mps 617 mmHg 34%
    07:00 +14°C° 0 mm 1 mps 618 mmHg 29%
    08:00 +15°C° 0 mm 2 mps 618 mmHg 26%
    09:00 +17°C° 0 mm 2 mps 619 mmHg 22%
    10:00 +18°C° 0 mm 2 mps 619 mmHg 18%
    11:00 +18°C° 0 mm 3 mps 619 mmHg 17%
    12:00 +19°C° 0 mm 3 mps 619 mmHg 17%
    13:00 +20°C° 0 mm 4 mps 619 mmHg 17%
    14:00 +20°C° 0 mm 4 mps 618 mmHg 17%
    15:00 +20°C° 0 mm 4 mps 618 mmHg 18%
    16:00 +20°C° 0 mm 4 mps 618 mmHg 18%
    17:00 +19°C° 0 mm 4 mps 618 mmHg 21%
    18:00 +18°C° 0 mm 3 mps 617 mmHg 23%
    19:00 +17°C° 0 mm 2 mps 617 mmHg 26%
    20:00 +16°C° 0 mm 2 mps 617 mmHg 29%
    21:00 +16°C° 0 mm 1 mps 617 mmHg 31%
    22:00 +15°C° 0 mm 1 mps 617 mmHg 34%
    23:00 +15°C° 0 mm 1 mps 617 mmHg 35%

    26 April, Friday

    Time Temperature Precipitation Wind Pressure Humidity
    00:00 +13°C° 0 mm 0 mps 616 mmHg 37%
    01:00 +13°C° 0 mm 0 mps 616 mmHg 38%
    02:00 +12°C° 0 mm 0 mps 616 mmHg 38%
    03:00 +12°C° 0 mm 0 mps 616 mmHg 38%
    04:00 +12°C° 0 mm 1 mps 615 mmHg 39%
    05:00 +13°C° 0 mm 1 mps 616 mmHg 35%
    06:00 +14°C° 0 mm 1 mps 617 mmHg 31%
    07:00 +15°C° 0 mm 1 mps 618 mmHg 27%
    08:00 +16°C° 0 mm 1 mps 618 mmHg 25%
    09:00 +18°C° 0 mm 1 mps 618 mmHg 24%
    10:00 +19°C° 0 mm 2 mps 619 mmHg 22%
    11:00 +19°C° 0 mm 3 mps 619 mmHg 21%
    12:00 +20°C° 0 mm 4 mps 619 mmHg 21%
    13:00 +21°C° 0 mm 5 mps 619 mmHg 20%
    14:00 +21°C° 0 mm 5 mps 618 mmHg 20%
    15:00 +21°C° 0 mm 6 mps 618 mmHg 19%
    16:00 +20°C° 0 mm 6 mps 618 mmHg 19%
    17:00 +19°C° 0 mm 5 mps 618 mmHg 22%
    18:00 +19°C° 0 mm 4 mps 618 mmHg 24%
    19:00 +18°C° 0 mm 3 mps 618 mmHg 27%
    20:00 +17°C° 0 mm 2 mps 618 mmHg 29%
    21:00 +16°C° 0 mm 2 mps 618 mmHg 32%
    22:00 +16°C° 0 mm 1 mps 618 mmHg 35%
    23:00 +15°C° 0 mm 1 mps 618 mmHg 36%
    Show more